Time[GMT],air_temperature[C](-3m),wind_speed[m/s](-4m),wind_gust[m/s](-4m),visibility[m](-3m),barometric_pressure[millibars](-3m),wind_2_direction[degrees_true](-4m),wind_2_gust[m/s](-4m),wind_2_gust_1s[m/s](-4m),wind_2_min[m/s](-4m),wind_2_percent_good[1](-4m),wind_2_speed[m/s](-4m),wind_direction[degrees_true](-4m),wind_gust_1s[m/s](-4m),wind_min[m/s](-4m)
2007-09-21 21:00,13.4,,, 425,1021.10,187.50,2.87,3.07,1.24,1.00,2.21,,2.35,0.59
2007-09-21 22:00,13.3,,, 389,1021.10,231.10,3.09,3.56,1.40,1.00,2.30,,2.94,0.78
2007-09-21 23:00,13.2,,, 391,1021.35,295.60,1.55,1.89,0.07,1.00,0.78,,0.98,0.00
2007-09-22 00:00,13.3,,, 371,1021.78,189.60,2.19,2.63,0.03,1.00,1.20,,1.57,0.00
2007-09-22 01:00,13.2,,, 290,1021.72,190.00,1.79,2.12,0.08,1.00,0.97,,1.18,0.00
2007-09-22 02:00,13.1,,, 230,1021.84,192.60,2.44,2.75,0.64,1.00,1.71,,1.96,0.00
2007-09-22 03:00,13.1,,, 330,1021.41,154.80,4.01,4.28,1.60,1.00,2.93,,3.72,0.98
2007-09-22 04:00,13.1,,, 338,1021.17,183.20,4.26,4.67,2.29,1.00,3.23,,3.92,1.57
2007-09-22 05:00,12.9,,, 346,1020.80,163.10,5.16,5.53,2.46,1.00,3.80,,4.90,1.96
2007-09-22 06:00,12.9,,, 514,1020.49,168.80,4.79,4.97,2.31,1.00,3.81,,4.51,1.96
2007-09-22 07:00,12.9,,, 617,1020.30,192.80,4.03,4.91,1.65,1.00,3.28,,4.51,1.18
2007-09-22 08:00,12.9,,,2164,1020.49,199.70,4.17,4.64,1.85,1.00,3.03,,4.12,1.37
2007-09-22 09:00,12.9,,,2053,1020.92,202.30,3.10,3.50,0.67,1.00,1.99,,2.94,0.00
2007-09-22 10:00,13.4,,,2081,1021.04,214.60,3.09,3.61,1.29,1.00,2.44,,3.14,0.98
2007-09-22 11:00,13.6,,,1600,1020.98,250.80,3.08,3.41,0.73,1.00,1.88,,2.94,0.00
2007-09-22 12:00,13.9,,,1870,1020.55,195.30,3.04,3.73,1.34,1.00,2.44,,3.14,1.18
2007-09-22 13:00,14.1,,,2401,1020.86,182.90,3.17,3.62,1.74,1.00,2.68,,2.94,1.18
2007-09-22 14:00,14.2,,,2562,1020.37,163.20,4.37,4.77,2.55,1.00,3.62,,4.31,1.96
2007-09-22 15:00,14.3,,,2777,1019.87,171.80,5.85,6.50,3.39,1.00,5.08,,6.08,3.14
2007-09-22 16:00,14.6,,,2838,1019.44,191.60,6.43,7.28,3.63,1.00,5.34,,7.25,3.92
2007-09-22 17:00,14.9,,,2774,1019.20,217.70,5.31,5.93,2.57,1.00,4.34,,5.68,2.94
2007-09-22 18:00,15.1,,,2876,1018.52,215.10,6.65,7.23,3.56,1.00,5.25,,6.86,3.72
2007-09-22 19:00,15.0,,,2781,1017.85,205.70,7.39,7.81,3.66,1.00,5.81,,8.04,3.53
2007-09-22 20:00,15.1,,,2679,1016.68,181.90,7.15,8.31,4.19,1.00,6.20,,8.23,4.31
2007-09-22 21:00,15.1,,,2775,1016.68,199.10,7.62,8.24,4.09,1.00,5.95,,7.84,3.92
2007-09-22 22:00,15.0,,,2885,1016.07,193.60,9.47,10.66,5.35,1.00,8.40,,10.98,5.29
2007-09-22 23:00,15.1,,,2500,1016.13,211.70,9.12,10.13,4.82,1.00,7.01,,9.80,4.70
2007-09-23 00:00,15.2,,,2313,1016.07,200.20,9.09,10.69,5.63,1.00,7.85,,10.19,5.49
2007-09-23 01:00,15.7,,,2068,1015.88,211.80,8.01,8.72,4.87,1.00,6.93,,8.62,4.90
2007-09-23 03:00,15.9,,,2408,1014.96,208.80,7.58,8.66,4.74,1.00,6.63,,8.43,4.31
2007-09-23 04:00,15.9,,,1067,1014.60,212.20,7.98,8.71,4.54,1.00,6.61,,9.02,4.51
2007-09-23 05:00,15.9,,, 965,1014.41,216.60,8.72,9.76,4.75,1.00,7.08,,9.60,4.70
2007-09-23 06:00,15.9,,, 731,1013.61,216.30,7.62,8.68,4.40,1.00,6.75,,9.02,4.90
2007-09-23 07:00,16.0,,, 764,1013.06,228.50,7.63,8.57,4.51,1.00,6.77,,8.82,4.70
2007-09-23 08:00,16.1,,, 685,1013.06,234.00,8.39,9.08,5.32,1.00,7.16,,9.02,5.29
2007-09-23 09:00,15.8,,, 774,1013.25,240.40,6.92,7.78,3.63,1.00,5.75,,7.45,3.72
2007-09-23 10:00,15.7,,, 717,1013.74,280.40,6.62,7.07,3.41,1.00,5.63,,7.06,3.92
2007-09-23 11:00,15.1,,, 217,1014.17,307.10,5.10,5.78,2.55,1.00,4.28,,5.29,2.55
2007-09-23 12:00,14.4,,, 190,1014.35,312.00,5.78,6.44,3.31,1.00,4.72,,5.88,2.94
2007-09-23 13:00,14.1,,, 340,1014.66,303.60,5.69,6.41,2.95,1.00,4.84,,6.08,3.14
2007-09-23 14:00,14.6,,,2204,1015.45,309.50,5.84,6.88,3.35,1.00,4.91,,6.66,3.14
2007-09-23 15:00,14.9,,,2849,1015.27,294.80,5.15,5.82,3.13,1.00,4.30,,5.49,2.94
2007-09-23 16:00,15.3,,,2872,1015.27,286.80,6.22,6.94,3.92,1.00,5.49,,6.86,3.72
2007-09-23 17:00,15.9,,,2931,1014.96,283.00,5.97,6.64,3.56,1.00,5.30,,6.47,3.72
2007-09-23 18:00,16.0,,,2959,1014.66,281.80,6.72,7.67,3.49,1.00,5.53,,7.45,3.53
2007-09-23 19:00,16.5,,,2962,1014.29,274.30,8.84,10.11,5.27,1.00,7.68,,9.60,5.49
2007-09-23 20:00,16.6,,,2962,1013.68,259.40,7.72,8.38,3.92,1.00,6.30,,7.84,4.51
2007-09-23 22:00,16.2,,,2961,1013.49,256.80,9.30,10.13,5.55,1.00,7.99,,10.00,5.49
2007-09-23 23:00,16.2,,,2961,1013.61,268.20,10.07,10.88,6.15,1.00,8.79,,10.58,6.47
2007-09-24 00:00,16.1,,,2962,1014.29,273.50,8.38,9.28,5.25,1.00,7.31,,8.82,5.10
2007-09-24 01:00,16.4,,,2962,1014.90,305.10,8.96,9.68,4.93,1.00,7.11,,9.21,4.51
2007-09-24 02:00,16.0,,,2961,1015.64,298.90,7.38,8.07,5.10,1.00,6.70,,7.64,4.90
2007-09-24 03:00,16.0,,,2962,1016.44,294.50,7.40,8.28,5.00,1.00,6.61,,8.04,4.70
2007-09-24 04:00,15.6,,,2962,1016.44,292.50,7.71,8.41,4.36,1.00,6.32,,8.04,3.92
2007-09-24 05:00,15.4,,,2961,1016.87,292.00,7.66,8.60,5.05,1.00,6.70,,8.62,4.90
2007-09-24 06:00,15.8,,,2962,1017.11,302.90,8.21,9.55,4.63,1.00,6.99,,9.60,4.90
2007-09-24 07:00,14.8,,,2961,1017.73,285.20,5.77,6.38,3.14,1.00,4.79,,6.27,3.14
2007-09-24 08:00,14.9,,,2962,1018.15,298.70,7.00,7.94,4.36,1.00,6.20,,7.64,3.92
2007-09-24 09:00,15.3,,,2961,1018.22,303.10,7.89,8.77,4.64,1.00,6.45,,8.43,5.10
2007-09-24 10:00,15.0,,,2961,1018.65,298.20,8.59,9.78,4.65,1.00,6.72,,9.02,4.90
2007-09-24 11:00,15.1,,,2962,1019.32,298.20,9.28,10.21,4.53,1.00,7.57,,9.60,4.90
2007-09-24 12:00,14.9,,,2960,1019.63,279.80,7.02,8.13,3.81,1.00,5.92,,7.45,3.92
2007-09-24 13:00,14.9,,,2953,1020.12,279.00,8.64,9.43,4.88,1.00,7.13,,9.02,4.90
2007-09-24 15:00,15.1,,,2956,1019.01,286.60,10.19,11.25,6.17,1.00,8.88,,10.98,6.27
2007-09-24 16:00,15.1,,,2901,1018.58,289.60,9.66,10.10,5.67,1.00,8.02,,10.19,5.29
2007-09-24 17:00,15.1,,,2899,1018.09,282.40,9.94,10.67,5.97,1.00,8.24,,10.39,5.88
2007-09-24 18:00,15.4,,,2930,1017.54,272.00,8.55,9.41,5.26,1.00,7.54,,9.21,5.29
2007-09-24 20:00,15.8,,,2907,1017.05,268.90,7.89,8.52,4.65,1.00,6.51,,8.04,4.51
2007-09-24 22:00,16.1,,,2962,1016.74,259.90,9.03,9.86,5.48,1.00,7.85,,9.41,5.88
2007-09-24 23:00,15.5,,,2961,1016.80,249.50,5.71,6.46,3.06,1.00,4.98,,6.08,3.33
2007-09-25 01:00,15.6,,,2961,1016.80,214.30,6.03,6.52,3.82,1.00,5.24,,6.27,3.72
2007-09-25 02:00,15.7,,,2961,1016.80,244.60,6.48,7.04,4.34,1.00,5.62,,6.47,3.92
2007-09-25 03:00,15.6,,,2962,1016.62,251.60,6.48,7.47,3.38,1.00,5.48,,6.66,3.33
2007-09-25 04:00,15.5,,,2961,1016.56,258.80,5.81,6.48,3.35,1.00,5.18,,6.08,3.53
2007-09-25 05:00,15.1,,,2962,1016.93,307.70,3.27,3.65,1.28,1.00,2.31,,2.55,0.78
2007-09-25 06:00,14.9,,,2961,1016.62,265.60,3.26,3.83,1.46,1.00,2.79,,2.94,0.98
2007-09-25 07:00,14.9,,,2961,1016.25,298.50,2.48,2.73,0.71,1.00,1.72,,1.57,0.00
2007-09-25 08:00,15.0,,,2961,1016.01,250.70,3.23,3.75,1.67,1.00,2.87,,2.94,1.57
2007-09-25 09:00,14.9,,,2961,1016.13,231.50,3.90,4.46,2.13,1.00,3.40,,3.92,1.76
2007-09-25 10:00,15.2,,,2961,1016.25,254.00,6.57,6.87,4.00,1.00,5.53,,6.47,4.12
2007-09-25 11:00,15.3,,,2962,1016.25,256.60,5.53,6.05,3.02,1.00,4.94,,5.49,3.14
2007-09-25 12:00,15.8,,,1675,1016.31,230.30,4.77,5.24,2.30,1.00,3.87,,4.90,2.35
2007-09-25 13:00,15.6,,,2667,1015.58,239.40,6.37,7.30,3.70,1.00,5.66,,6.86,3.92
2007-09-25 14:00,15.7,,,2709,1015.09,245.50,7.23,7.52,4.37,1.00,5.94,,7.64,4.12
2007-09-25 15:00,15.6,,,2855,1015.21,331.50,3.73,4.22,1.68,1.00,2.99,,3.53,1.57
2007-09-25 16:00,16.4,,,2960,1015.02,233.20,1.79,2.72,0.39,1.00,1.45,,1.57,0.00
2007-09-25 17:00,15.8,,,2960,1014.47,225.50,3.89,4.41,2.33,1.00,3.40,,4.12,2.16
2007-09-25 19:00,15.8,,,2959,1013.49,223.70,5.46,6.29,3.14,1.00,4.73,,5.88,3.14
2007-09-25 21:00,16.7,,,2962,1012.08,218.30,7.31,7.97,4.95,1.00,6.44,,7.64,4.70
2007-09-25 22:00,16.5,,,2962,1011.84,210.60,7.26,7.76,4.65,1.00,6.41,,7.25,4.31
2007-09-25 23:00,16.3,,,2962,1011.78,219.00,7.50,8.24,4.83,1.00,6.55,,7.64,4.70
2007-09-26 00:00,16.8,,,2961,1011.53,230.20,8.85,9.50,5.74,1.00,7.69,,9.21,5.49
2007-09-26 01:00,17.0,,,2960,1011.53,235.40,8.88,10.27,5.76,1.00,7.82,,9.60,5.49
2007-09-26 02:00,16.9,,,2957,1011.41,238.10,8.92,9.99,5.68,1.00,7.98,,9.80,5.88
2007-09-26 03:00,17.0,,,2960,1011.41,243.90,8.87,9.68,5.61,1.00,7.75,,9.80,5.49
2007-09-26 04:00,17.8,,,2961,1011.16,244.80,11.16,12.21,7.07,1.00,9.39,,11.96,6.47
2007-09-26 05:00,16.9,,,2957,1011.22,246.30,9.82,11.12,6.46,1.00,8.57,,10.78,6.08
2007-09-26 06:00,17.1,,,2957,1011.28,255.80,10.71,11.88,5.90,1.00,8.71,,11.76,5.68
2007-09-26 07:00,16.5,,,2919,1011.35,252.60,8.06,9.21,4.61,1.00,6.86,,9.41,4.31
2007-09-26 08:00,16.4,,,2904,1011.35,251.80,7.38,8.08,4.71,1.00,6.52,,8.23,4.51
2007-09-26 09:00,16.4,,,2907,1011.59,248.20,8.28,9.44,4.55,1.00,7.29,,9.02,4.51
2007-09-26 10:00,16.5,,,2930,1011.78,243.20,8.39,8.93,4.60,1.00,6.94,,8.62,4.70
2007-09-26 11:00,16.4,,,2777,1011.90,236.20,8.85,10.37,5.76,1.00,7.75,,9.60,5.49
2007-09-26 12:00,16.5,,,2883,1011.96,238.20,7.72,8.51,3.92,1.00,6.46,,8.04,4.12
2007-09-26 13:00,16.7,,,2847,1011.65,233.30,9.34,10.72,5.78,1.00,7.84,,10.39,5.49
2007-09-26 14:00,16.6,,,2840,1011.47,231.90,8.93,9.85,5.28,1.00,7.54,,9.80,5.49
2007-09-26 15:00,16.8,,,2827,1011.41,236.10,10.23,12.32,5.69,1.00,8.38,,11.56,5.88
2007-09-26 16:00,16.8,,,2712,1010.98,229.50,10.01,11.46,5.38,1.00,8.27,,10.98,5.29
2007-09-26 17:00,16.9,,,2767,1010.49,226.50,10.10,10.80,5.96,1.00,8.50,,11.17,5.68
2007-09-26 18:00,17.1,,,2814,1010.49,226.10,10.20,10.81,5.76,1.00,8.52,,11.17,5.29
2007-09-26 19:00,17.4,,,2889,1010.37,231.50,9.84,10.92,6.66,1.00,8.70,,10.98,5.88
2007-09-26 20:00,17.4,,,2863,1010.30,231.60,9.78,10.67,5.70,1.00,8.12,,10.58,5.68
2007-09-26 21:00,17.4,,,2859,1010.49,228.70,9.18,10.18,5.99,1.00,8.21,,10.39,5.68
2007-09-26 22:00,17.3,,,2821,1010.73,230.50,9.70,10.99,5.42,1.00,8.37,,10.39,5.49
2007-09-26 23:00,17.2,,,2766,1011.28,227.30,9.49,10.28,6.09,1.00,8.01,,10.39,5.49
2007-09-27 00:00,17.0,,,2777,1012.08,232.30,8.60,9.75,5.70,1.00,7.63,,9.60,5.49
2007-09-27 01:00,16.7,,,2710,1012.57,236.30,8.57,10.17,5.13,1.00,7.52,,10.00,5.29
2007-09-27 02:00,16.1,,,2561,1013.43,247.10,6.75,7.53,3.65,1.00,5.74,,7.64,3.72
2007-09-27 03:00,16.0,,,2489,1013.55,243.00,7.39,8.14,3.60,1.00,6.04,,8.23,3.53
2007-09-27 04:00,16.1,,,2521,1013.61,234.50,6.16,6.92,3.38,1.00,5.22,,6.86,3.33
2007-09-27 05:00,15.8,,,2406,1014.41,234.90,4.44,5.47,2.49,1.00,3.89,,5.10,2.16
2007-09-27 06:00,15.5,,,2400,1014.60,230.20,4.25,5.28,2.16,1.00,3.62,,4.51,2.16
2007-09-27 07:00,15.8,,,2481,1015.02,235.30,4.96,5.76,2.25,1.00,4.04,,5.29,2.16
2007-09-27 09:00,15.1,,,2266,1015.76,225.00,2.46,3.00,0.79,1.00,1.86,,2.16,0.39
2007-09-27 10:00,15.5,,,2382,1016.13,246.70,3.97,4.58,1.32,1.00,3.09,,4.12,0.78
2007-09-27 11:00,15.8,,,1780,1016.07,204.90,6.66,7.25,1.62,1.00,3.80,,7.06,1.57
2007-09-27 12:00,15.8,,,2352,1015.76,170.70,6.83,7.08,4.08,1.00,5.30,,7.06,3.72
2007-09-27 13:00,16.2,,,2273,1016.37,246.00,2.71,3.52,1.03,1.00,2.12,,2.94,0.39
2007-09-27 14:00,16.8,,,2618,1016.19,174.20,4.46,5.24,2.67,1.00,4.03,,4.90,2.74
2007-09-27 15:00,16.2,,,2111,1015.58,186.90,5.55,6.32,3.07,1.00,4.79,,6.08,3.14
2007-09-27 16:00,16.1,,, 333,1015.33,199.50,5.00,5.91,3.13,1.00,4.56,,5.49,2.94
2007-09-27 17:00,15.8,,, 422,1015.76,226.40,3.16,3.85,1.12,1.00,2.70,,3.14,1.37
2007-09-27 18:00,15.8,,, 211,1015.39,197.40,4.04,4.77,2.11,1.00,3.43,,4.12,2.16
2007-09-27 19:00,15.9,,, 219,1015.02,201.90,4.99,5.43,2.70,1.00,4.20,,5.29,2.74
2007-09-27 20:00,16.0,,, 436,1014.53,210.30,5.75,6.77,3.74,1.00,5.20,,6.66,3.92
2007-09-27 21:00,16.0,,, 174,1014.47,201.70,5.81,6.59,3.14,1.00,4.78,,6.08,3.33
2007-09-27 22:00,16.0,,, 145,1014.23,191.50,5.82,6.40,3.10,1.00,4.92,,5.88,3.14
2007-09-27 23:00,16.1,,, 223,1014.35,191.20,7.15,7.88,3.48,1.00,6.16,,7.84,3.72
2007-09-28 00:00,16.6,,, 339,1014.35,194.80,9.21,9.91,5.53,1.00,7.44,,9.60,5.29
2007-09-28 01:00,16.2,,, 290,1013.92,191.20,7.72,8.29,5.34,1.00,6.70,,8.04,5.29
2007-09-28 02:00,16.1,,, 329,1013.55,191.10,7.04,7.91,4.46,1.00,6.35,,7.84,4.70
2007-09-28 03:00,15.9,,, 752,1013.18,182.40,6.80,7.44,4.27,1.00,5.91,,7.45,4.12
2007-09-28 04:00,16.3,,,1313,1011.96,184.30,7.59,8.29,4.13,1.00,6.53,,8.23,4.12
2007-09-28 05:00,16.4,,,1949,1011.22,179.70,8.04,8.97,4.66,1.00,6.91,,8.82,4.51
2007-09-28 06:00,16.2,,,2234,1010.79,182.80,6.85,7.66,4.54,1.00,6.14,,7.25,4.12
2007-09-28 07:00,16.3,,,1293,1010.06,193.50,4.67,5.29,1.95,1.00,3.69,,4.70,1.76
2007-09-28 08:00,16.0,,, 734,1008.59,78.00,3.59,4.80,0.57,1.00,2.60,,3.72,0.00
2007-09-28 09:00,15.6,,, 885,1007.24,82.90,4.17,5.03,1.90,1.00,3.28,,4.31,1.76
2007-09-28 10:00,15.8,,, 502,1006.02,9.33,3.84,4.63,2.34,1.00,3.25,,4.12,2.35
2007-09-28 11:00,15.7,,,2846,1004.18,39.57,4.11,4.89,2.28,1.00,3.24,,4.12,2.16
2007-09-28 12:00,15.2,,,2919,1003.63,345.74,5.05,5.41,3.33,1.00,4.39,,4.90,2.94
2007-09-28 13:00,15.4,,,2795,1003.51,341.20,5.89,6.52,3.20,1.00,4.68,,5.49,2.94
2007-09-28 14:00,15.5,,,2895,1004.12,289.40,3.72,5.08,1.55,1.00,3.00,,4.51,1.37
2007-09-28 15:00,15.5,,,2905,1005.04,258.40,5.72,6.34,3.12,1.00,4.95,,6.08,3.33
2007-09-28 16:00,15.6,,, 709,1005.41,241.00,3.53,4.31,1.40,1.00,3.09,,3.72,1.37
2007-09-28 17:00,15.7,,,1500,1005.35,213.80,4.88,5.97,2.97,1.00,4.29,,5.68,2.94
2007-09-28 18:00,16.3,,,2727,1005.41,225.90,6.85,7.59,4.35,1.00,5.94,,7.64,4.31
2007-09-28 19:00,16.4,,,2617,1005.71,231.90,7.45,8.33,4.09,1.00,6.25,,8.04,3.92
2007-09-28 20:00,16.4,,,2637,1005.84,237.20,8.02,8.85,5.06,1.00,6.99,,8.62,4.51
2007-09-28 21:00,16.3,,,2764,1006.26,243.80,7.38,8.28,4.41,1.00,6.43,,8.04,4.12
2007-09-28 22:00,15.9,,,2910,1006.39,269.20,5.36,6.43,2.76,1.00,4.56,,5.88,2.74
2007-09-28 23:00,16.0,,,2961,1007.12,295.70,5.42,6.46,3.02,1.00,4.59,,5.88,2.74
2007-09-29 00:00,15.6,,,2961,1007.73,297.30,4.75,5.73,2.52,1.00,4.00,,4.90,2.35
2007-09-29 01:00,15.5,,,2961,1008.28,299.50,4.74,5.94,1.66,1.00,3.85,,5.29,1.57
2007-09-29 02:00,15.4,,,2961,1008.71,325.80,4.72,6.06,1.49,1.00,3.64,,5.29,1.37
2007-09-29 03:00,15.4,,,2961,1009.08,332.20,7.99,9.51,2.88,1.00,6.44,,9.02,3.33
2007-09-29 04:00,14.7,,,2961,1009.63,347.61,8.67,10.17,4.71,1.00,7.65,,10.00,4.31
2007-09-29 05:00,14.1,,,2961,1010.73,0.90,10.87,12.04,5.62,1.00,8.96,,11.76,5.29
2007-09-29 06:00,13.5,,,2933,1010.67,0.46,10.91,12.70,5.59,1.00,9.04,,12.15,5.10
2007-09-29 07:00,12.9,,,2962,1010.86,13.54,11.06,12.93,5.84,1.00,9.62,,12.74,5.88
2007-09-29 08:00,12.4,,,2951,1012.08,14.28,12.89,14.10,6.54,1.00,10.46,,14.11,6.86
2007-09-29 11:00,12.8,,,2962,1015.02,359.80,10.22,11.40,4.66,1.00,8.47,,11.76,4.90
2007-09-29 12:00,12.9,,,2962,1016.13,345.74,9.07,10.03,4.66,1.00,7.15,,9.80,4.31
2007-09-29 13:00,13.1,,,2962,1017.05,325.40,7.94,8.84,3.76,1.00,6.24,,8.43,3.92
2007-09-29 14:00,13.2,,,2956,1018.09,324.00,9.23,11.03,4.09,1.00,7.27,,9.80,4.12
2007-09-29 15:00,13.3,,,2962,1018.46,322.10,8.50,9.66,4.11,1.00,7.10,,8.82,4.51
2007-09-29 16:00,13.7,,,2961,1018.95,316.30,8.74,9.51,4.24,1.00,7.13,,9.41,4.51
2007-09-29 17:00,13.9,,,2962,1019.14,312.80,8.11,8.82,4.85,1.00,6.90,,8.43,4.31
2007-09-29 18:00,14.9,,,2842,1019.63,306.00,7.61,8.65,4.46,1.00,6.64,,8.43,4.31
2007-09-29 19:00,14.6,,,2956,1019.94,288.00,6.13,7.23,2.96,1.00,4.88,,6.47,2.35
2007-09-29 20:00,15.5,,,2962,1020.18,298.80,6.21,6.92,3.52,1.00,5.36,,6.86,3.53
2007-09-29 21:00,15.3,,,2962,1020.74,277.80,5.27,5.95,3.20,1.00,4.46,,5.49,3.14
2007-09-29 22:00,14.8,,,2962,1021.60,294.60,5.61,6.56,3.27,1.00,4.74,,6.27,2.94
2007-09-29 23:00,14.6,,,2961,1022.70,323.80,7.91,9.15,3.99,1.00,6.04,,8.43,3.53
2007-09-30 00:00,14.6,,,2962,1023.93,321.50,6.92,8.08,3.64,1.00,5.87,,8.04,3.33
2007-09-30 01:00,14.5,,,2961,1024.98,327.10,7.83,9.49,4.25,1.00,6.31,,8.62,4.31
2007-09-30 02:00,14.4,,,2961,1025.90,329.50,7.63,8.47,3.33,1.00,5.17,,7.84,3.33
2007-09-30 03:00,14.2,,,2962,1026.64,330.50,8.18,9.01,4.47,1.00,6.56,,8.23,4.70
2007-09-30 04:00,13.9,,,2961,1027.26,339.10,7.91,8.26,3.60,1.00,6.30,,7.84,3.92
2007-09-30 05:00,13.6,,,2961,1027.87,354.75,8.59,9.88,4.19,1.00,6.74,,8.82,4.12
2007-09-30 06:00,13.4,,,2962,1028.49,7.44,10.54,11.21,5.85,1.00,8.64,,11.17,5.49
2007-09-30 08:00,12.0,,,2962,1029.72,27.99,11.57,12.46,6.20,1.00,10.06,,12.15,6.47
2007-09-30 09:00,11.7,,,2962,1030.46,32.59,10.23,10.88,6.13,1.00,8.64,,10.78,6.08
2007-09-30 11:00,11.4,,,2723,1032.13,34.76,8.05,8.94,4.57,1.00,6.71,,8.62,4.31
2007-09-30 12:00,11.4,,,2196,1032.87,39.44,7.04,8.11,3.25,1.00,5.56,,7.45,3.33
2007-09-30 13:00,11.1,,,2804,1033.55,23.05,7.09,7.58,3.29,1.00,5.41,,6.86,2.94
2007-09-30 14:00,10.9,,,2867,1033.30,35.57,6.99,7.68,3.73,1.00,5.67,,7.45,3.33
2007-09-30 15:00,10.9,,,2951,1033.79,42.27,5.70,6.50,2.39,1.00,4.23,,5.88,1.76
2007-09-30 16:00,10.8,,,2727,1034.16,30.29,5.16,5.84,1.85,1.00,4.17,,5.49,1.57
2007-09-30 17:00,10.9,,,2883,1033.92,24.90,4.22,4.98,1.43,1.00,3.09,,4.31,1.18
2007-09-30 18:00,10.9,,,2924,1033.73,15.65,2.92,3.46,0.40,1.00,2.12,,2.35,0.00
2007-09-30 19:00,11.1,,,2962,1033.73,354.83,4.05,4.40,1.60,1.00,2.97,,3.92,0.98
2007-09-30 20:00,12.4,,,2962,1033.98,307.80,3.25,3.75,1.18,1.00,2.36,,2.94,0.59
2007-09-30 21:00,11.3,,,2962,1033.98,311.80,2.98,3.43,1.34,1.00,2.40,,2.74,0.78
2007-09-30 22:00,11.4,,,2962,1034.10,304.30,3.65,4.04,1.78,1.00,2.74,,3.53,1.37
2007-09-30 23:00,11.4,,,2961,1034.10,287.20,3.15,3.59,1.79,1.00,2.56,,2.94,0.98
2007-10-01 00:00,11.6,,,2961,1034.16,295.50,3.06,3.31,1.70,1.00,2.50,,2.55,0.98
2007-10-01 01:00,11.7,,,2962,1034.41,272.40,2.56,2.79,1.21,1.00,2.11,,2.16,0.59
2007-10-01 02:00,11.9,,,2962,1034.35,294.80,1.95,2.28,1.15,1.00,1.68,,1.37,0.39
2007-10-01 03:00,11.9,,,2962,1034.22,288.60,2.01,2.23,0.82,1.00,1.49,,1.18,0.00
2007-10-01 04:00,12.0,,,2962,1034.04,265.10,1.51,1.74,0.46,1.00,1.06,,0.78,0.00
2007-10-01 05:00,12.0,,,2962,1034.16,267.50,2.38,2.66,0.26,1.00,1.33,,1.96,0.00
2007-10-01 06:00,12.0,,,2962,1033.98,141.80,1.32,1.61,0.33,1.00,0.95,,0.39,0.00
2007-10-01 07:00,12.1,,,2962,1033.61,143.10,2.51,2.92,1.02,1.00,1.93,,1.76,0.00
2007-10-01 08:00,12.0,,,2962,1033.73,138.30,2.75,3.07,1.16,1.00,2.18,,2.16,0.59
2007-10-01 09:00,12.3,,,2962,1033.48,129.10,4.23,4.82,2.26,1.00,3.64,,4.31,2.16
2007-10-01 10:00,12.3,,,2962,1034.60,154.70,4.01,4.18,1.34,1.00,2.88,,3.53,0.78
2007-10-01 11:00,12.8,,,2962,1034.90,151.30,3.46,3.83,1.75,1.00,2.76,,3.33,1.18
2007-10-01 12:00,13.1,,,2962,1035.15,165.40,4.19,4.64,2.38,1.00,3.60,,4.31,1.96
2007-10-01 13:00,12.7,,,2962,1035.15,168.50,3.70,4.12,1.49,1.00,2.70,,3.53,0.98
2007-10-01 14:00,12.6,,,2962,1035.40,177.00,5.08,5.43,2.31,1.00,3.71,,5.29,1.96
2007-10-01 15:00,12.6,,,2962,1035.09,176.30,4.36,5.10,2.27,1.00,3.57,,4.51,1.96
2007-10-01 16:00,12.8,,,2962,1034.90,197.30,4.44,4.83,2.23,1.00,3.57,,4.70,1.96
2007-10-01 17:00,12.7,,,2961,1033.85,194.80,5.48,5.73,3.38,1.00,4.66,,5.29,3.14
2007-10-01 18:00,13.1,,,2951,1033.30,195.10,6.03,6.65,3.11,1.00,4.80,,6.27,2.74
2007-10-01 19:00,13.3,,,2962,1032.68,194.90,5.87,6.72,2.74,1.00,4.95,,6.47,3.14
2007-10-01 20:00,13.4,,,2962,1032.31,188.30,5.87,6.53,2.62,1.00,4.84,,6.27,2.16
2007-10-01 22:00,13.5,,,2961,1032.00,196.60,5.22,5.66,2.63,1.00,4.37,,5.49,2.74
2007-10-01 23:00,13.4,,,2961,1032.19,191.00,5.87,6.50,4.25,1.00,5.30,,5.88,3.92
2007-10-02 00:00,13.4,,,2961,1031.94,189.70,7.36,8.10,4.54,1.00,6.25,,7.84,3.92
2007-10-02 01:00,13.5,,,2961,1031.69,191.90,7.74,8.57,4.76,1.00,6.74,,8.23,4.51
2007-10-02 02:00,13.6,,,2961,1031.69,193.40,7.01,7.84,4.34,1.00,6.21,,7.25,3.92
2007-10-02 03:00,13.6,,,2961,1031.26,199.40,7.17,7.54,4.13,1.00,5.97,,7.25,3.92
2007-10-02 04:00,13.8,,,2961,1030.95,196.70,7.07,7.72,4.19,1.00,6.15,,7.25,4.31
2007-10-02 05:00,13.9,,,2961,1030.95,209.40,6.76,7.52,3.88,1.00,5.68,,7.25,3.53
2007-10-02 06:00,14.0,,,2961,1030.58,209.20,6.21,7.27,3.57,1.00,5.16,,6.86,3.33
2007-10-02 07:00,,,,,,214.70,5.02,5.65,2.68,1.00,4.23,,,
2007-10-02 08:00,14.2,,,2962,1030.15,222.50,4.77,5.37,2.43,1.00,3.86,,4.51,2.35
2007-10-02 09:00,14.2,,,2962,1030.21,230.20,3.72,4.41,2.21,1.00,3.28,,3.53,1.96
2007-10-02 10:00,14.1,,,2962,1030.09,211.10,3.43,4.02,2.09,1.00,3.00,,3.33,1.18
2007-10-02 11:00,14.1,,,2959,1030.21,211.40,2.70,3.09,1.50,1.00,2.27,,2.35,0.98
2007-10-02 12:00,14.5,,,1855,1030.46,200.50,2.45,3.27,1.33,1.00,2.12,,2.55,0.98
2007-10-02 13:00,14.8,,,2667,1030.58,186.70,3.46,3.98,1.95,1.00,2.99,,3.33,1.57
2007-10-02 14:00,14.9,,,2952,1031.02,207.30,2.75,3.24,1.34,1.00,2.32,,2.55,1.18
2007-10-02 15:00,14.6,,,2959,1030.89,205.00,2.37,2.77,1.38,1.00,2.07,,1.96,0.78
2007-10-02 16:00,14.9,,,2959,1030.83,218.90,2.27,2.68,1.02,1.00,1.83,,1.76,0.39
2007-10-02 17:00,15.4,,,2960,1030.09,196.00,1.82,2.30,0.54,1.00,1.43,,1.18,0.00
2007-10-02 18:00,15.4,,,2962,1029.41,147.20,2.35,2.72,0.97,1.00,1.83,,1.57,0.39
2007-10-02 19:00,15.2,,,2954,1028.86,121.50,3.44,3.84,1.52,1.00,2.76,,3.14,1.37
2007-10-02 22:00,14.5,,,2960,1027.87,120.20,3.84,4.38,2.18,1.00,3.22,,3.53,1.76
2007-10-02 23:00,14.4,,,2961,1027.44,133.10,4.83,5.47,2.55,1.00,3.85,,5.10,2.16
2007-10-03 00:00,14.5,,,2962,1027.81,138.10,3.11,3.56,1.72,1.00,2.72,,2.94,1.57
2007-10-03 01:00,14.5,,,2961,1028.00,152.50,3.50,4.04,1.99,1.00,2.97,,3.53,1.57
2007-10-03 02:00,14.6,,,2961,1027.63,152.80,3.65,4.21,1.82,1.00,3.21,,3.72,1.96
2007-10-03 03:00,14.6,,,2962,1027.26,157.50,2.60,3.22,1.11,1.00,2.17,,2.35,0.78
2007-10-03 04:00,14.5,,,2961,1026.21,142.90,3.16,3.74,1.89,1.00,2.82,,3.14,1.57
2007-10-03 05:00,14.7,,,2961,1025.72,146.20,3.37,3.91,2.00,1.00,2.97,,3.33,1.37
2007-10-03 06:00,14.7,,,2962,1025.16,149.50,3.72,4.49,2.17,1.00,3.27,,3.72,1.76
2007-10-03 09:00,14.6,,,2959,1024.24,166.40,2.25,2.85,0.50,1.00,1.53,,1.76,0.00
2007-10-03 10:00,14.5,,,2912,1023.93,140.50,2.60,3.67,0.84,1.00,2.12,,3.14,0.59
2007-10-03 11:00,14.6,,, 253,1023.87,155.20,3.07,3.43,1.56,1.00,2.56,,2.74,0.98
2007-10-03 12:00,14.6,,, 228,1023.87,162.20,3.04,3.49,1.28,1.00,2.27,,2.74,0.98
2007-10-03 13:00,14.6,,, 269,1023.87,165.90,2.67,3.24,1.23,1.00,2.30,,2.55,0.78
2007-10-03 14:00,14.9,,,1802,1023.75,155.90,2.76,3.25,1.16,1.00,2.14,,2.35,0.59
2007-10-03 15:00,15.6,,,2948,1023.26,175.00,4.05,4.57,1.96,1.00,3.27,,3.92,1.76
2007-10-03 16:00,15.8,,,2954,1022.64,171.30,4.59,5.28,2.34,1.00,3.74,,4.51,1.96
2007-10-03 17:00,15.7,,,2957,1021.66,168.30,5.82,6.74,3.37,1.00,4.95,,6.27,3.33
2007-10-03 18:00,15.8,,,1214,1021.04,191.40,6.24,7.20,3.82,1.00,5.43,,7.06,3.53
2007-10-03 19:00,15.9,,,2956,1020.55,191.10,4.11,5.12,2.22,1.00,3.53,,4.31,1.96
2007-10-03 20:00,15.5,,, 621,1019.94,171.90,4.16,4.72,2.40,1.00,3.53,,4.12,1.96
2007-10-03 21:00,15.7,,,2961,1019.81,175.40,4.85,5.36,2.87,1.00,4.14,,4.90,2.55
2007-10-03 22:00,15.8,,,2961,1019.38,171.80,5.85,6.32,3.05,1.00,4.82,,5.68,2.94
2007-10-03 23:00,16.0,,,2961,1018.89,181.70,5.86,6.72,3.86,1.00,5.24,,6.47,3.53
2007-10-04 00:00,16.0,,, 646,1018.89,192.90,5.31,6.18,3.22,1.00,4.59,,5.88,3.14
2007-10-04 01:00,15.7,,,2173,1018.89,202.90,4.37,5.29,2.13,1.00,3.79,,4.70,2.55
2007-10-04 02:00,15.5,,, 969,1018.83,192.20,4.36,4.98,2.43,1.00,3.85,,4.70,2.35
2007-10-04 03:00,15.6,,, 941,1018.83,218.30,4.59,5.13,2.62,1.00,4.07,,4.70,2.55
2007-10-04 04:00,15.5,,, 980,1018.34,214.40,5.39,5.97,2.75,1.00,4.44,,5.49,2.74
2007-10-04 05:00,15.2,,, 890,1018.58,223.40,5.06,5.79,3.09,1.00,4.40,,5.29,2.94
2007-10-04 06:00,15.3,,, 711,1017.91,223.60,6.30,7.27,3.75,1.00,5.58,,7.25,3.92
2007-10-04 07:00,15.2,,, 544,1017.48,219.60,7.21,8.12,4.24,1.00,5.88,,7.84,4.31
2007-10-04 08:00,15.2,,, 802,1017.30,225.90,7.92,8.70,4.88,1.00,7.00,,8.82,4.90
2007-10-04 09:00,15.1,,,2406,1017.11,231.70,7.48,8.50,4.66,1.00,6.63,,8.23,3.92
2007-10-04 10:00,15.1,,,2716,1017.60,241.80,8.33,9.45,5.14,1.00,7.20,,9.60,4.90
2007-10-04 11:00,15.3,,,2653,1018.15,246.00,7.18,8.31,4.43,1.00,6.24,,7.84,4.12
2007-10-04 12:00,15.5,,, 563,1018.65,248.10,7.22,7.87,4.29,1.00,6.25,,7.64,4.31
2007-10-04 13:00,15.4,,,2406,1019.44,258.40,6.17,6.86,3.26,1.00,5.12,,6.66,3.33
2007-10-04 14:00,15.2,,, 445,1019.51,270.80,6.50,7.27,3.50,1.00,5.60,,7.06,3.72
2007-10-04 15:00,15.1,,, 739,1019.63,275.60,5.84,6.85,2.82,1.00,5.05,,6.47,2.74
2007-10-04 16:00,14.7,,,1072,1019.57,287.20,5.29,6.30,2.67,1.00,4.36,,5.88,2.55
2007-10-04 17:00,15.1,,,2954,1019.14,275.60,4.55,4.96,2.21,1.00,3.69,,4.51,2.16